Overview Statistics Trail Chart Weather Telemetry Raw packets
 

This is the latest recevied weather packets stored in our database for station/object W7BTL. If no packets are shown the sender has not sent any weather packets the latest 10 day(s).

<< 103 104 105 106 107 108 109 >>
Time Temp. Humidity Pressure Rain* Wind** Luminosity Snow
1787878291 30° C 60% 1008.5 hPa 0 mm - 93 W/m² -
1787877987 30° C 58% 1008.4 hPa 0 mm - 103 W/m² -
1787877683 30.56° C 58% 1008.5 hPa 0 mm - 104 W/m² -
1787877378 30.56° C 57% 1008.4 hPa 0 mm - 101 W/m² -
1787877074 31.11° C 55% 1008.2 hPa 0 mm - 96 W/m² -
1787876769 31.11° C 54% 1008.4 hPa 0 mm - 102 W/m² -
1787876468 31.67° C 52% 1008.5 hPa 0 mm - 98 W/m² -
1787876167 31.67° C 52% 1008.7 hPa 0 mm - 106 W/m² -
1787875863 32.22° C 52% 1008.6 hPa 0 mm - 136 W/m² -
1787875562 32.22° C 51% 1008.6 hPa 0 mm - 194 W/m² -
1787875256 31.67° C 52% 1008.4 hPa 0 mm - 423 W/m² -
1787874955 31.67° C 53% 1008.6 hPa 0 mm - 233 W/m² -
1787874650 31.67° C 53% 1008.5 hPa 0 mm - 247 W/m² -
1787874349 31.67° C 52% 1008.4 hPa 0 mm - 239 W/m² -
1787874043 31.67° C 52% 1008.5 hPa 0 mm - 230 W/m² -
1787873743 31.67° C 53% 1008.6 hPa 0 mm - 209 W/m² -
1787873438 31.67° C 53% 1008.4 hPa 0 mm - 199 W/m² -
1787873133 31.67° C 53% 1008.7 hPa 0 mm - 194 W/m² -
1787872832 32.22° C 52% 1008.6 hPa 0 mm - 191 W/m² -
1787872529 32.22° C 52% 1008.6 hPa 0 mm - 198 W/m² -
1787872236 32.78° C 51% 1008.8 hPa 0 mm - 200 W/m² -
1787871928 33.33° C 50% 1008.6 hPa 0 mm - 173 W/m² -
1787871624 33.33° C 49% 1008.7 hPa 0 mm - 149 W/m² -
1787871319 33.89° C 47% 1009 hPa 0 mm - 142 W/m² -
1787871014 34.44° C 45% 1009 hPa 0 mm - 148 W/m² -

* Rain latest hour (hover to see other rain measurements)
** Current wind speed in m/s (hover to see current wind gust speed)